788  
ASUS41 KRLX 220210  
RWRRLX  
WEST VIRGINIA REGIONAL WEATHER ROUNDUP  
NATIONAL WEATHER SERVICE CHARLESTON WV  
1000 PM EDT MON MAY 21 2018  
 
NOTE: "FAIR" INDICATES FEW OR NO CLOUDS BELOW 12,000 FEET WITH NO  
SIGNIFICANT WEATHER AND/OR S TO VISIBILITY
.  
 
WVZ003-220300-  
NORTHERN PANHANDLE OF WEST VIRGINIA  
 
CITY SKY/WX TMP DP RH WIND PRES REMARKS
 
WHEELING FAIR 72 63 73 S7 30.07S  

 
 
WVZ009-220300-  
NORTHWEST WEST VIRGINIA  
 
CITY SKY/WX TMP DP RH WIND PRES REMARKS
 
PARKERSBURG FAIR 67 65 93 SE3 30.11F  

 
 
WVZ006-220300-  
WESTERN WEST VIRGINIA  
 
CITY SKY/WX TMP DP RH WIND PRES REMARKS
 
HUNTINGTON FAIR 67 64 90 SE6 30.08F  

 
 
WVZ015-220300-  
WEST CENTRAL WEST VIRGINIA  
 
CITY SKY/WX TMP DP RH WIND PRES REMARKS
 
CHARLESTON CLOUDY 68 68 100 SE6 30.10F  

 
 
WVZ022-031-220300-  
NORTH CENTRAL WEST VIRGINIA  
 
CITY SKY/WX TMP DP RH WIND PRES REMARKS
 
CLARKSBURG CLOUDY 68 61 78 S9 30.10S  
MORGANTOWN FAIR 70 66 87 S8 30.13R  

 
 
WVZ025-035-042-045-220300-  
SOUTHERN WEST VIRGINIA  
 
CITY SKY/WX TMP DP RH WIND PRES REMARKS
 
BECKLEY CLOUDY 64 63 96 E5 30.18S  
LOGAN FAIR 68 64 88 CALM 30.13R  
BLUEFIELD CLOUDY 65 60 84 VRB6 30.21R  
LEWISBURG CLOUDY 64 64 97 CALM 30.21S  

 
 
WVZ047-220300-  
NORTHERN MOUNTAINS OF WEST VIRGINIA  
 
CITY SKY/WX TMP DP RH WIND PRES REMARKS
 
ELKINS HVY RAIN 65 63 93 SE7 30.20F FOG  

 
 
WVZ052-220300-  
EASTERN PANHANDLE OF WEST VIRGINIA  
 
CITY SKY/WX TMP DP RH WIND PRES REMARKS
 
MARTINSBURG MOCLDY 72 64 76 SE7 30.12R  
PETERSBURG MOCLDY 67 66 98 CALM 30.16R  

 
 
 
CLICK HERE TO GO TO PREVIOUS BULLETINS.

The Nexlab WV Page
The Nexlab OH Page
The Nexlab KY Page
The Nexlab VA Page Main Text Page